When you browse on this site, cookies collect data to enhance your experience and personalize the content and advertising you see.
Visit our Privacy Policy to learn more. By continuing to use the site, you agree to this use of cookies and data.
  • In Hungary
  • List of Countries
  • For 7 days
  • Water Temperature
  • Weather Map
  • News
  • Weather Widgets
  • user-avatar
    Login

    Hourly Weather Perchtoldsdorf

    Today, 28 May, Thursday

    Time Temperature Precipitation Wind Pressure Humidity
    00:00 +12°C° 0 mm 2 mps 746 mmHg 79%
    01:00 +10°C° 0 mm 2 mps 746 mmHg 81%
    02:00 +10°C° 0 mm 2 mps 746 mmHg 80%
    03:00 +10°C° 0 mm 2 mps 745 mmHg 80%
    04:00 +10°C° 0 mm 2 mps 745 mmHg 79%
    05:00 +12°C° 0 mm 2 mps 745 mmHg 76%
    06:00 +13°C° 0 mm 2 mps 744 mmHg 72%
    07:00 +14°C° 0 mm 3 mps 744 mmHg 69%
    08:00 +14°C° 0.1 mm 3 mps 744 mmHg 69%
    09:00 +14°C° 0.1 mm 4 mps 744 mmHg 70%
    10:00 +15°C° 0.1 mm 4 mps 744 mmHg 70%
    11:00 +14°C° 0.4 mm 4 mps 744 mmHg 74%
    12:00 +13°C° 0.4 mm 4 mps 743 mmHg 79%
    13:00 +13°C° 0.4 mm 4 mps 743 mmHg 83%
    14:00 +12°C° 0.3 mm 5 mps 743 mmHg 84%
    15:00 +12°C° 0.3 mm 5 mps 743 mmHg 84%
    16:00 +10°C° 0.3 mm 5 mps 743 mmHg 85%
    17:00 +10°C° 0.1 mm 5 mps 743 mmHg 84%
    18:00 +10°C° 0.1 mm 5 mps 743 mmHg 82%
    19:00 +11°C° 0.1 mm 4 mps 743 mmHg 81%
    20:00 +10°C° 0 mm 4 mps 743 mmHg 82%
    21:00 +10°C° 0 mm 4 mps 744 mmHg 82%
    22:00 +10°C° 0 mm 4 mps 744 mmHg 83%
    23:00 +10°C° 0.2 mm 4 mps 744 mmHg 85%

    Tomorrow, 29 May, Friday

    Time Temperature Precipitation Wind Pressure Humidity
    00:00 +10°C° 0.2 mm 4 mps 743 mmHg 86%
    01:00 +8°C° 0.2 mm 4 mps 743 mmHg 88%
    02:00 +8°C° 0.2 mm 4 mps 743 mmHg 88%
    03:00 +8°C° 0.2 mm 4 mps 743 mmHg 89%
    04:00 +8°C° 0.2 mm 4 mps 743 mmHg 89%
    05:00 +10°C° 0 mm 4 mps 743 mmHg 88%
    06:00 +10°C° 0 mm 4 mps 743 mmHg 88%
    07:00 +10°C° 0 mm 4 mps 743 mmHg 87%
    08:00 +11°C° 0.2 mm 4 mps 743 mmHg 86%
    09:00 +11°C° 0.2 mm 4 mps 743 mmHg 84%
    10:00 +12°C° 0.2 mm 4 mps 743 mmHg 82%
    11:00 +13°C° 0.1 mm 4 mps 743 mmHg 77%
    12:00 +14°C° 0.1 mm 4 mps 743 mmHg 73%
    13:00 +15°C° 0.1 mm 4 mps 742 mmHg 68%
    14:00 +15°C° 0.3 mm 4 mps 742 mmHg 68%
    15:00 +15°C° 0.3 mm 4 mps 742 mmHg 68%
    16:00 +15°C° 0.3 mm 5 mps 741 mmHg 68%
    17:00 +14°C° 0.2 mm 4 mps 741 mmHg 71%
    18:00 +13°C° 0.2 mm 3 mps 741 mmHg 73%
    19:00 +13°C° 0.2 mm 2 mps 741 mmHg 75%
    20:00 +13°C° 0.1 mm 2 mps 741 mmHg 76%
    21:00 +12°C° 0.1 mm 2 mps 742 mmHg 78%
    22:00 +10°C° 0.1 mm 2 mps 742 mmHg 79%
    23:00 +10°C° 0 mm 2 mps 742 mmHg 79%

    Day after tomorrow, 30 May, Saturday

    Time Temperature Precipitation Wind Pressure Humidity
    00:00 +9°C° 0 mm 2 mps 742 mmHg 80%
    01:00 +9°C° 0 mm 3 mps 742 mmHg 81%
    02:00 +8°C° 0 mm 2 mps 741 mmHg 82%
    03:00 +7°C° 0 mm 2 mps 741 mmHg 83%
    04:00 +6°C° 0 mm 2 mps 741 mmHg 84%
    05:00 +7°C° 0 mm 3 mps 741 mmHg 80%
    06:00 +8°C° 0 mm 3 mps 741 mmHg 75%
    07:00 +8°C° 0 mm 4 mps 741 mmHg 71%
    08:00 +10°C° 0 mm 4 mps 741 mmHg 65%
    09:00 +12°C° 0 mm 4 mps 741 mmHg 59%
    10:00 +13°C° 0 mm 4 mps 741 mmHg 53%
    11:00 +14°C° 0 mm 4 mps 740 mmHg 52%
    12:00 +14°C° 0 mm 4 mps 740 mmHg 50%
    13:00 +15°C° 0 mm 4 mps 740 mmHg 49%
    14:00 +15°C° 0.1 mm 4 mps 740 mmHg 51%
    15:00 +15°C° 0.1 mm 4 mps 739 mmHg 52%
    16:00 +15°C° 0.1 mm 4 mps 739 mmHg 54%
    17:00 +14°C° 0.1 mm 3 mps 739 mmHg 59%
    18:00 +13°C° 0.1 mm 3 mps 739 mmHg 65%
    19:00 +12°C° 0.1 mm 3 mps 739 mmHg 71%
    20:00 +11°C° 0 mm 3 mps 740 mmHg 73%
    21:00 +10°C° 0 mm 3 mps 740 mmHg 76%
    22:00 +9°C° 0 mm 3 mps 740 mmHg 79%
    23:00 +9°C° 0 mm 3 mps 740 mmHg 80%

    31 May, Sunday

    Time Temperature Precipitation Wind Pressure Humidity
    00:00 +8°C° 0 mm 3 mps 740 mmHg 81%
    01:00 +8°C° 0 mm 3 mps 739 mmHg 82%
    02:00 +8°C° 0 mm 3 mps 739 mmHg 81%
    03:00 +8°C° 0 mm 3 mps 739 mmHg 80%
    04:00 +7°C° 0 mm 4 mps 739 mmHg 79%
    05:00 +7°C° 0 mm 4 mps 739 mmHg 77%
    06:00 +8°C° 0 mm 5 mps 739 mmHg 74%
    07:00 +9°C° 0 mm 5 mps 738 mmHg 72%
    08:00 +9°C° 0 mm 5 mps 738 mmHg 72%
    09:00 +10°C° 0 mm 5 mps 738 mmHg 73%
    10:00 +10°C° 0 mm 6 mps 738 mmHg 74%
    11:00 +10°C° 0.1 mm 5 mps 738 mmHg 76%
    12:00 +10°C° 0.1 mm 5 mps 738 mmHg 78%
    13:00 +10°C° 0.1 mm 5 mps 738 mmHg 80%
    14:00 +10°C° 0.6 mm 5 mps 738 mmHg 83%
    15:00 +10°C° 0.6 mm 5 mps 738 mmHg 87%
    16:00 +9°C° 0.6 mm 5 mps 738 mmHg 91%
    17:00 +9°C° 0.3 mm 5 mps 738 mmHg 91%
    18:00 +9°C° 0.3 mm 5 mps 738 mmHg 91%
    19:00 +9°C° 0.3 mm 5 mps 738 mmHg 91%
    20:00 +9°C° 0.1 mm 5 mps 738 mmHg 91%
    21:00 +9°C° 0.1 mm 5 mps 738 mmHg 91%
    22:00 +9°C° 0.1 mm 5 mps 738 mmHg 90%
    23:00 +9°C° 0.2 mm 5 mps 738 mmHg 90%

    1 June, Monday

    Time Temperature Precipitation Wind Pressure Humidity
    00:00 +10°C° 0.2 mm 5 mps 738 mmHg 90%
    01:00 +10°C° 0.2 mm 5 mps 738 mmHg 90%
    02:00 +10°C° 0.1 mm 5 mps 737 mmHg 90%
    03:00 +10°C° 0.1 mm 5 mps 737 mmHg 90%
    04:00 +10°C° 0.1 mm 5 mps 737 mmHg 90%
    05:00 +12°C° 0 mm 5 mps 737 mmHg 89%
    06:00 +12°C° 0 mm 5 mps 737 mmHg 88%
    07:00 +13°C° 0 mm 5 mps 737 mmHg 86%
    08:00 +14°C° 0.1 mm 5 mps 737 mmHg 83%
    09:00 +15°C° 0.1 mm 5 mps 737 mmHg 79%
    10:00 +16°C° 0.1 mm 5 mps 737 mmHg 76%
    11:00 +17°C° 0.8 mm 5 mps 737 mmHg 74%
    12:00 +19°C° 0.8 mm 6 mps 737 mmHg 72%
    13:00 +19°C° 0.8 mm 6 mps 737 mmHg 70%
    14:00 +20°C° 0.6 mm 5 mps 737 mmHg 70%
    15:00 +20°C° 0.6 mm 5 mps 736 mmHg 70%
    16:00 +20°C° 0.6 mm 5 mps 736 mmHg 70%
    17:00 +19°C° 0.3 mm 5 mps 736 mmHg 72%
    18:00 +18°C° 0.3 mm 4 mps 736 mmHg 75%
    19:00 +17°C° 0.3 mm 3 mps 736 mmHg 78%
    20:00 +16°C° 0.2 mm 3 mps 737 mmHg 81%
    21:00 +14°C° 0.2 mm 3 mps 737 mmHg 83%
    22:00 +13°C° 0.2 mm 3 mps 737 mmHg 85%
    23:00 +13°C° 0 mm 3 mps 737 mmHg 86%

    2 June, Tuesday

    Time Temperature Precipitation Wind Pressure Humidity
    00:00 +13°C° 0 mm 3 mps 737 mmHg 87%
    01:00 +13°C° 0 mm 3 mps 737 mmHg 88%
    02:00 +12°C° 0 mm 3 mps 737 mmHg 88%
    03:00 +12°C° 0 mm 3 mps 736 mmHg 89%
    04:00 +11°C° 0 mm 3 mps 736 mmHg 89%
    05:00 +12°C° 0 mm 4 mps 736 mmHg 87%
    06:00 +13°C° 0 mm 4 mps 736 mmHg 85%
    07:00 +14°C° 0 mm 4 mps 736 mmHg 83%
    08:00 +15°C° 0.2 mm 4 mps 736 mmHg 81%
    09:00 +17°C° 0.2 mm 4 mps 736 mmHg 78%
    10:00 +17°C° 0.2 mm 4 mps 736 mmHg 76%
    11:00 +18°C° 0.7 mm 4 mps 736 mmHg 73%
    12:00 +19°C° 0.7 mm 4 mps 736 mmHg 70%
    13:00 +20°C° 0.7 mm 4 mps 735 mmHg 68%
    14:00 +20°C° 0.5 mm 4 mps 735 mmHg 67%
    15:00 +20°C° 0.5 mm 4 mps 735 mmHg 67%
    16:00 +21°C° 0.5 mm 4 mps 734 mmHg 67%
    17:00 +20°C° 0.4 mm 3 mps 734 mmHg 71%
    18:00 +19°C° 0.4 mm 3 mps 734 mmHg 76%
    19:00 +18°C° 0.4 mm 2 mps 734 mmHg 81%
    20:00 +16°C° 0.1 mm 2 mps 734 mmHg 83%
    21:00 +15°C° 0.1 mm 1 mps 734 mmHg 85%
    22:00 +14°C° 0.1 mm 1 mps 735 mmHg 88%
    23:00 +14°C° 0 mm 1 mps 734 mmHg 88%
    Show more